This is the latest recevied weather packets stored in our database for station/object N0EDB-13. If no packets are shown the sender has not sent any weather packets the latest 10 day(s).
| Time | Temp. | Humidity | Pressure | Rain* | Wind** | Luminosity | Snow |
|---|---|---|---|---|---|---|---|
| 1777573019 | 9.44° C | 51% | 1512.2 hPa | 0 mm | - | 139 W/m² | - |
| 1777572718 | 9.44° C | 51% | 1512.2 hPa | 0 mm | - | 131 W/m² | - |
| 1777572417 | 9.44° C | 50% | 1512.1 hPa | 0 mm | - | 142 W/m² | - |
| 1777572117 | 9.44° C | 50% | 1511.7 hPa | 0 mm | - | 154 W/m² | - |
| 1777571816 | 10° C | 49% | 1511 hPa | 0 mm | - | 163 W/m² | - |
| 1777571515 | 10° C | 49% | 1510.6 hPa | 0 mm | - | 177 W/m² | - |
| 1777571215 | 10° C | 48% | 1510.7 hPa | 0 mm | - | 182 W/m² | - |
| 1777570914 | 10° C | 49% | 1510.8 hPa | 0 mm | - | 189 W/m² | - |
| 1777570614 | 10° C | 49% | 1510.7 hPa | 0 mm | - | 226 W/m² | - |
| 1777570313 | 10° C | 49% | 1510.6 hPa | 0 mm | - | 202 W/m² | - |
| 1777570012 | 10° C | 49% | 1510.7 hPa | 0 mm | - | 261 W/m² | - |
| 1777569711 | 10° C | 49% | 1511 hPa | 0 mm | - | 291 W/m² | - |
| 1777569410 | 9.44° C | 49% | 1511.5 hPa | 0 mm | - | 270 W/m² | - |
| 1777569109 | 10° C | 49% | 1511.2 hPa | 0 mm | - | 328 W/m² | - |
| 1777568809 | 9.44° C | 49% | 1511.6 hPa | 0 mm | - | 380 W/m² | - |
| 1777568508 | 10° C | 49% | 1510.5 hPa | 0 mm | - | 358 W/m² | - |
| 1777568208 | 10.56° C | 48% | 1509.8 hPa | 0 mm | - | 375 W/m² | - |
| 1777567907 | 10.56° C | 48% | 1509.9 hPa | 0 mm | - | 607 W/m² | - |
| 1777567607 | 10.56° C | 47% | 1508.6 hPa | 0 mm | - | 589 W/m² | - |
| 1777567307 | 10.56° C | 47% | 1508.8 hPa | 0 mm | - | 576 W/m² | - |
| 1777567006 | 10.56° C | 47% | 1509.9 hPa | 0 mm | - | 796 W/m² | - |
| 1777566706 | 9.44° C | 49% | 1511.8 hPa | 0 mm | - | 868 W/m² | - |
| 1777566405 | 9.44° C | 49% | 1512.4 hPa | 0 mm | - | 526 W/m² | - |
| 1777566105 | 9.44° C | 50% | 1513.3 hPa | 0 mm | - | 470 W/m² | - |
| 1777565804 | 8.89° C | 51% | 1514.4 hPa | 0 mm | - | 439 W/m² | - |
* Rain latest hour (hover to see other rain measurements)
** Current wind speed in m/s (hover to see current wind gust speed)